Location: ??? ?????
(30.6482°N, 60.5850°E)
Time: 05:21:14
(UTC+00:00)

STARLINK-1103 - Pass Details

Date: 09 April 2020
Orbit: 549 x 550 km, 53.0° (Epoch: 27 May)

Event Time Altitude Azimuth Distance (km) Brightness Sun altitude
Rises 14:39:14 0° 314° (NW) 2,718 8.3 -4.5°
Reaches altitude 10° 14:41:29 10° 312° (NW) 1,822 7.4 -5.0°
Maximum altitude 14:45:35 67° 230° (SW) 594 4.0 -5.8°
Drops below altitude 10° 14:49:41 10° 147° (SSE) 1,813 5.8 -6.7°
Enters shadow 14:51:34 - 145° (SE) 2,567 6.6 -7.1°
